This demonstration page uses our WeatherBlox Daily Observations layout. Learn more.

Left ArrowRight Arrow

Hourly Observations for February 6, 2022

Temp ( °F °C ) Dew Point ( °F °C ) Humidity (%) Winds ( mph kmh ) Pressure ( in mb ) Visibility ( mi km ) Precip ( " mm )
1:56 am 01:56 Clear 29 -1.5 19 -7.2 66 66 SSW 3 6 30.08 1019 10 16 0.00 0.00
3:56 am 03:56 Cloudy 27 -2.6 19 -7.1 72 72 Calm 30.08 1019 10 16 0.00 0.00
4:56 am 04:56 Clear 26 -3.4 18 -7.7 72 72 Calm 30.11 1020 10 16 0.00 0.00
5:56 am 05:56 Mostly Clear 25 -3.9 18 -7.9 74 74 Calm 30.12 1020 10 16 0.00 0.00
6:56 am 06:56 Mostly Clear 24 -4.3 17 -8.5 73 73 NW 3 6 30.14 1021 10 16 0.00 0.00
7:56 am 07:56 Mostly Sunny 26 -3.3 19 -7.5 73 73 NW 8 13 30.16 1021 10 16 0.00 0.00
8:56 am 08:56 Mostly Sunny 34 1.3 24 -4.5 66 66 NW 9 15 30.19 1023 10 16 0.00 0.00
9:56 am 09:56 Mostly Sunny 40 4.6 26 -3.2 57 57 NNW 12 19 30.22 1023 10 16 0.00 0.00
10:56 am 10:56 Mostly Sunny 45 7 28 -2.5 51 51 NNW 14 22 30.23 1024 10 16 0.00 0.00
11:56 am 11:56 undefined 46 7.7 25 -3.8 44 44 NW 22 35 30.25 1024 10 16 0.00 0.00
12:56 pm 12:56 Mostly Sunny 40 4.5 25 -4 54 54 NW 22 35 30.27 1025 10 16 0.00 0.00
1:56 pm 13:56 Mostly Sunny 41 5.2 18 -8 38 38 NW 16 26 30.26 1025 10 16 0.00 0.00
2:56 pm 14:56 Mostly Sunny 40 4.7 19 -7.1 42 42 NNW 15 24 30.27 1025 10 16 0.00 0.00
3:56 pm 15:56 Sunny 41 4.9 13 -10.4 32 32 NW 17 28 30.28 1026 10 16 0.00 0.00
4:56 pm 16:56 Sunny 39 4 12 -11.2 32 32 NNW 13 20 30.31 1026 10 16 0.00 0.00
5:56 pm 17:56 Clear 37 2.7 12 -10.9 36 36 NNW 9 15 30.32 1027 10 16 0.00 0.00
6:56 pm 18:56 Clear 35 1.6 12 -11.2 38 38 NW 10 17 30.34 1027 10 16 0.00 0.00
7:56 pm 19:56 undefined 33 0.4 13 -10.7 44 44 NNW 5 7 30.36 1028 10 16 0.00 0.00
8:56 pm 20:56 Clear 30 -1.1 13 -10.5 49 49 Calm 30.37 1028 10 16 0.00 0.00
9:56 pm 21:56 Clear 27 -2.6 13 -10.6 55 55 Calm 30.37 1028 10 16 0.00 0.00
10:56 pm 22:56 Clear 26 -3.5 13 -10.4 59 59 Calm 30.35 1028 10 16 0.00 0.00
11:56 pm 23:56 Clear 24 -4.3 13 -10.3 63 63 Calm 30.34 1028 10 16 0.00 0.00

Powered by AerisWeather